Regional Weather Roundup
Issued by NWS

Home | Current Version | Previous Version | Graphics & Text | Print | Product List | Glossary On
Versions: 1 2 3 4 5 6 7 8 9 10 11 12 13 14 15 16 17 18 19 20 21 22 23 24 25 26 27 28 29 30 31 32 33 34 35 36 37 38 39 40 41 42 43 44 45 46 47 48 49 50
000
ASUS43 KLMK 272002
RWRKY
KENTUCKY REGIONAL WEATHER ROUNDUP
NATIONAL WEATHER SERVICE LOUISVILLE KY
400 PM EDT MON APR 27 2015

NOTE "FAIR" INDICATES FEW OR NO CLOUDS BELOW 12,000 FEET
WITH NO SIGNIFICANT WEATHER AND/OR OBSTRUCTIONS TO VISIBILITY.

KYZ001>023-026-027-061>063-070>075-272100-
WESTERN AND SOUTH CENTRAL KENTUCKY

CITY           SKY/WX    TMP DP  RH WIND       PRES   REMARKS
PADUCAH        SUNNY     67  39  35 NE12      30.00F
HENDERSON      SUNNY     63  37  39 N8        30.00F
OWENSBORO      SUNNY     63  37  37 N12G17    30.00F
HOPKINSVILLE   MOSUNNY   64  39  40 N8        29.99S
BOWLING GREEN  SUNNY     67  39  35 NE10      29.97F
GLASGOW        NOT AVBL
$$

KYZ024-025-028>034-038-045-046-053-272100-
NORTH CENTRAL KENTUCKY

CITY           SKY/WX    TMP DP  RH WIND       PRES   REMARKS
LOUISVILLE/SDF MOSUNNY   68  36  30 NW16      29.97S
LOUISVILLE/LOU SUNNY     65  34  31 NW6G18    29.97S
FORT KNOX      SUNNY     64  33  31 N8        29.96S
$$

KYZ035>037-039>044-047>052-055>060-089>105-272100-
NORTHEAST KENTUCKY

CITY           SKY/WX    TMP DP  RH WIND       PRES   REMARKS
LEXINGTON      PTSUNNY   61  36  39 VRB3      29.96R
COVINGTON      PTSUNNY   61  36  39 NW14      29.95F
FRANKFORT      PTSUNNY   63  35  35 NW9G18    29.95S
$$

KYZ054-064>069-076>088-106>120-272100-
SOUTHEAST KENTUCKY

CITY           SKY/WX    TMP DP  RH WIND       PRES   REMARKS
JACKSON        PTSUNNY   59  31  34 VRB5      29.94S
LONDON         SUNNY     64  31  28 MISG      29.94S
SOMERSET       NOT AVBL
MIDDLESBORO    SUNNY     63  34  34 NW9       29.94S
MONTICELLO     PTCLDY    66  36  33 N9G16     29.98F
$$




USA.gov is the U.S. government's official web portal to all federal, state and local government web resources and services.